FW0304 Weather Reports


Display with metric or nautical units.
time (UTC)temp
F
wind
direction
speed
MPH
gust
MPH
rain 1hr
in
rain 24hr
in
rain mn
in
humidity
%
barometer
mb
20260505200021 74 76 1.0 6.0 0.00 0.04 0.03 63 1012.3
20260505193030 74 59 1.0 9.0 0.00 0.04 0.03 62 1012.3
20260505190022 75 181 2.0 5.0 0.01 0.04 0.03 62 1012.7
20260505184523 75 144 2.0 6.0 0.01 0.04 0.03 60 1013.0
20260505183028 75 242 0.0 8.0 0.01 0.04 0.03 62 1012.9
20260505180022 74 250 0.0 5.0 0.00 0.03 0.02 64 1013.5
20260505174532 74 137 1.0 7.0 0.00 0.04 0.02 61 1013.6
20260505173024 73 294 0.0 2.0 0.00 0.04 0.02 66 1013.9
20260505171530 74 55 1.0 6.0 0.00 0.04 0.02 63 1014.1
20260505170024 74 87 1.0 6.0 0.00 0.04 0.02 65 1013.8
20260505164520 73 273 0.0 7.0 0.00 0.04 0.02 68 1014.0
20260505163025 73 273 0.0 4.0 0.00 0.04 0.02 68 1014.3
20260505161510 72 284 0.0 2.0 0.00 0.04 0.02 67 1014.2
20260505153026 71 164 2.0 5.0 0.01 0.04 0.02 66 1014.4
20260505151509 71 261 0.0 2.0 0.01 0.04 0.02 70 1014.5
20260505124517 61 164 0.0 2.0 0.00 0.03 0.01 81 1014.0
20260505123022 60 120 0.0 2.0 0.00 0.03 0.01 82 1013.8
20260505121523 59 153 1.0 2.0 0.00 0.03 0.01 82 1013.5
20260505120029 58 111 1.0 2.0 0.00 0.03 0.01 84 1013.3
20260505114526 58 109 0.0 1.0 0.00 0.03 0.01 85 1012.9
20260505113023 57 108 0.0 2.0 0.01 0.03 0.01 86 1012.7
20260505111536 57 107 0.0 1.0 0.01 0.03 0.01 86 1012.7
20260505101519 57 80 0.0 2.0 0.00 0.02 0.00 84 1012.8
20260505100023 57 75 0.0 2.0 0.00 0.02 0.00 84 1012.7
20260505094528 58 74 0.0 2.0 0.00 0.02 0.00 84 1012.8
20260505091515 58 67 0.0 0.0 0.00 0.02 0.00 82 1013.2
20260505090019 58 67 0.0 0.0 0.00 0.02 0.00 82 1013.0
20260505084525 58 67 0.0 0.0 0.00 0.03 0.00 81 1013.2
20260505083027 59 67 0.0 0.0 0.00 0.03 0.00 81 1013.1
20260505081533 59 67 0.0 2.0 0.00 0.03 0.00 80 1013.1
20260505080029 59 129 0.0 2.0 0.00 0.03 0.00 79 1013.1
20260505074505 60 129 0.0 2.0 0.00 0.03 0.00 78 1013.5
20260505073012 61 129 0.0 2.0 0.00 0.03 0.00 75 1013.2
20260505071512 61 129 0.0 0.0 0.00 0.03 0.00 76 1013.2
20260505070017 61 129 0.0 1.0 0.00 0.03 0.00 76 1013.2
20260505064519 61 129 0.0 2.0 0.00 0.03 0.00 76 1013.3
20260505063006 62 142 0.0 2.0 0.00 0.03 0.00 75 1013.3
20260505061520 62 112 0.0 2.0 0.00 0.03 0.00 75 1013.5
20260505060014 62 122 0.0 2.0 0.00 0.03 0.00 75 1013.6
20260505054521 61 15 0.0 0.0 0.00 0.03 0.00 78 1013.5
20260505053023 61 15 0.0 0.0 0.00 0.03 0.00 78 1013.5
20260505051512 61 15 0.0 1.0 0.00 0.03 0.00 76 1013.5
20260505041530 62 15 0.0 0.0 0.01 0.03 0.03 77 1013.3
20260505040014 62 15 0.0 0.0 0.00 0.02 0.02 75 1013.3
20260505034515 63 15 0.0 2.0 0.00 0.02 0.02 74 1013.3
20260505033019 62 15 0.0 2.0 0.00 0.02 0.02 77 1013.5
20260505031522 62 89 0.0 0.0 0.00 0.02 0.02 76 1013.3
20260505030010 63 89 0.0 0.0 0.00 0.02 0.02 77 1013.2
20260505024534 63 89 0.0 2.0 0.00 0.02 0.02 76 1013.2
20260505023022 63 89 0.0 0.0 0.00 0.02 0.02 76 1013.0
20260505021523 63 89 0.0 0.0 0.00 0.02 0.02 75 1012.9
20260505020024 63 89 0.0 2.0 0.00 0.02 0.02 73 1012.9
20260505014514 64 89 0.0 0.0 0.00 0.02 0.02 73 1012.9
20260505013023 65 89 0.0 0.0 0.00 0.02 0.02 71 1012.7
20260505011522 66 89 0.0 0.0 0.00 0.02 0.02 69 1012.7
20260505010022 67 89 0.0 0.0 0.00 0.02 0.02 67 1012.4
20260505004526 68 89 0.0 0.0 0.00 0.02 0.02 65 1012.4
20260505003018 70 89 0.0 0.0 0.00 0.02 0.02 59 1012.3
20260505001520 72 89 0.0 0.0 0.00 0.02 0.02 1012.4
20260505000032 74 89 0.0 1.0 0.00 0.02 0.02 49 1012.2
20260504234524 74 49 0.0 1.0 0.00 0.02 0.02 49 1012.4
20260504233021 75 46 0.0 2.0 0.00 0.02 0.02 48 1012.4
20260504231526 76 165 0.0 2.0 0.00 0.02 0.02 45 1012.5
20260504230007 76 19 0.0 3.0 0.00 0.02 0.02 45 1012.5
20260504224508 77 183 1.0 4.0 0.00 0.02 0.02 43 1012.5
20260504223012 77 78 0.0 4.0 0.00 0.02 0.02 44 1012.8